This is the latest recevied weather packets stored in our database for station/object DL3NDS-WX. If no packets are shown the sender has not sent any weather packets the latest 1 day(s).
| Time | Temp. | Humidity | Pressure | Rain* | Wind** | Luminosity | Snow |
|---|---|---|---|---|---|---|---|
| 1778079269 | 17.22° C | 64% | 1007 hPa | 0 mm | - | 162 W/m² | - |
| 1778079205 | 17.22° C | 64% | 1007 hPa | 0 mm | - | 167 W/m² | - |
| 1778079084 | 17.22° C | 64% | 1007 hPa | 0 mm | - | 174 W/m² | - |
| 1778078898 | 17.22° C | 64% | 1006.9 hPa | 0 mm | - | 185 W/m² | - |
| 1778078594 | 17.22° C | 65% | 1007 hPa | 0 mm | - | 185 W/m² | - |
| 1778078103 | 17.78° C | 62% | 1007 hPa | 0 mm | - | 260 W/m² | - |
| 1778077858 | 17.78° C | 63% | 1007 hPa | 0 mm | - | 272 W/m² | - |
| 1778077797 | 17.78° C | 62% | 1007 hPa | 0 mm | - | 279 W/m² | - |
| 1778077479 | 18.33° C | 63% | 1007 hPa | 0 mm | - | 241 W/m² | - |
| 1778077112 | 17.78° C | 65% | 1006.9 hPa | 0 mm | - | 515 W/m² | - |
| 1778077051 | 17.78° C | 63% | 1006.9 hPa | 0 mm | - | 452 W/m² | - |
| 1778076925 | 17.78° C | 63% | 1007 hPa | 0 mm | - | 388 W/m² | - |
| 1778076865 | 18.33° C | 61% | 1007 hPa | 0 mm | - | 454 W/m² | - |
| 1778076678 | 18.33° C | 62% | 1007 hPa | 0 mm | - | 517 W/m² | - |
| 1778076498 | 17.78° C | 61% | 1007.1 hPa | 0 mm | - | 550 W/m² | - |
| 1778076438 | 17.78° C | 62% | 1007.1 hPa | 0 mm | - | 550 W/m² | - |
| 1778076315 | 17.78° C | 62% | 1007.1 hPa | 0 mm | - | 561 W/m² | - |
| 1778076256 | 17.78° C | 63% | 1007.1 hPa | 0 mm | - | 387 W/m² | - |
| 1778076096 | 17.22° C | 63% | 1007.1 hPa | 0 mm | - | 369 W/m² | - |
| 1778075819 | 17.22° C | 63% | 1007.2 hPa | 0 mm | - | 294 W/m² | - |
| 1778075759 | 17.22° C | 63% | 1007.3 hPa | 0 mm | - | 288 W/m² | - |
| 1778075579 | 17.22° C | 62% | 1007.3 hPa | 0 mm | - | 287 W/m² | - |
| 1778075514 | 17.22° C | 62% | 1007.4 hPa | 0 mm | - | 278 W/m² | - |
| 1778075453 | 17.22° C | 61% | 1007.3 hPa | 0 mm | - | 271 W/m² | - |
| 1778075084 | 17.22° C | 62% | 1007.3 hPa | 0 mm | - | 250 W/m² | - |
* Rain latest hour (hover to see other rain measurements)
** Current wind speed in m/s (hover to see current wind gust speed)